Weather History for KEMM - July, 2013

Change the Weather History Date:

Saturday, July 20, 2013

  Actual Average (KRKS) Record (KRKS)
Temperature  
Mean Temperature 68 °F 70 °F  
Max Temperature 86 °F 85 °F 93 °F (2005)
Min Temperature 49 °F 55 °F 45 °F (1995)
Degree Days  
Heating Degree Days 0 0  
Month to date heating degree days 19  
Since 1 June heating degree days 186  
Since 1 July heating degree days 19  
Cooling Degree Days 2 5  
Month to date cooling degree days 85  
Year to date cooling degree days 121  
Since 1 June cooling degree days 120  
Growing Degree Days 18 (Base 50)    
Moisture  
Dew Point 25 °F    
Average Humidity 22    
Maximum Humidity 51    
Minimum Humidity 7    
Precipitation  
Precipitation 0.00 in 0.02 in 1.13 in (1990)
Month to date precipitation 0.39  
Year to date precipitation 4.91  
Sea Level Pressure  
Sea Level Pressure 30.22 in    
Wind  
Wind Speed 11 mph (NW)    
Max Wind Speed 28 mph    
Max Gust Speed 43 mph    
Visibility 10 miles    
Events      
T = Trace of Precipitation, MM = Missing Value Source: NWS Daily Summary

Daily Weather History Graph

Daily Weather History Graph

Search for Another Location

Airport or City:

Trip Planner

Search our weather history database for the weather conditions in past years. The results will help you decide how hot, cold, wet, or windy it might be!

Date:

Astronomy

Jul. 20, 2013 Rise Set
Actual Time 6:05 AM MDT 8:51 PM MDT
Civil Twilight 5:32 AM MDT 9:24 PM MDT
Nautical Twilight 4:51 AM MDT 10:05 PM MDT
Astronomical Twilight 4:03 AM MDT 10:52 PM MDT
Moon 6:58 PM MDT (7/20) 3:48 AM MDT (7/20)
Length of Visible Light 15h 51m
Length of Day
14h 46m
Waxing Gibbous, 94% of the Moon is Illuminated
Jul 20
Waxing Gibbous
Jul 22
Full
Jul 29
Last Quarter
Aug 6
New
Aug 14
First Quarter

Hourly Weather History & Observations

Time (MDT) Temp. Dew Point Humidity Pressure Visibility Wind Dir Wind Speed Gust Speed Precip Events Conditions
12:15 AM 61.0 °F 27.7 °F 28% 30.26 in 10.0 mi NNW 10.4 mph - N/A   Clear
12:35 AM 61.3 °F 26.6 °F 27% 30.26 in 10.0 mi NNW 6.9 mph - N/A   Clear
12:55 AM 60.8 °F 26.4 °F 27% 30.25 in 10.0 mi NNW 8.1 mph - N/A   Clear
1:15 AM 60.8 °F 26.2 °F 27% 30.25 in 10.0 mi NW 6.9 mph - N/A   Clear
1:35 AM 60.3 °F 26.6 °F 28% 30.25 in 10.0 mi NW 8.1 mph - N/A   Clear
1:55 AM 59.7 °F 26.6 °F 28% 30.25 in 10.0 mi NNW 11.5 mph - N/A   Clear
2:15 AM 57.7 °F 27.7 °F 32% 30.25 in 10.0 mi NNW 9.2 mph - N/A   Clear
2:35 AM 58.3 °F 27.7 °F 31% 30.25 in 10.0 mi North 9.2 mph - N/A   Clear
2:55 AM 57.9 °F 28.0 °F 32% 30.25 in 10.0 mi NNW 10.4 mph - N/A   Clear
3:15 AM 58.1 °F 27.9 °F 32% 30.24 in 10.0 mi NNW 9.2 mph - N/A   Clear
3:35 AM 57.4 °F 27.7 °F 32% 30.24 in 10.0 mi NNW 10.4 mph - N/A   Clear
3:55 AM 57.9 °F 27.0 °F 31% 30.24 in 10.0 mi NNW 17.3 mph - N/A   Clear
4:15 AM 57.4 °F 27.3 °F 32% 30.24 in 10.0 mi NNW 15.0 mph - N/A   Clear
4:35 AM 55.9 °F 27.7 °F 34% 30.24 in 10.0 mi NNW 9.2 mph - N/A   Clear
4:55 AM 54.5 °F 28.6 °F 37% 30.24 in 10.0 mi North 9.2 mph - N/A   Clear
5:15 AM 53.1 °F 29.5 °F 40% 30.24 in 10.0 mi NNW 10.4 mph - N/A   Clear
5:35 AM 52.9 °F 29.1 °F 40% 30.24 in 10.0 mi North 11.5 mph - N/A   Clear
5:55 AM 52.7 °F 30.2 °F 42% 30.25 in 10.0 mi North 6.9 mph - N/A   Clear
6:15 AM 49.3 °F 31.8 °F 51% 30.25 in 10.0 mi NNW 11.5 mph - N/A   Clear
6:35 AM 52.2 °F 30.4 °F 43% 30.25 in 10.0 mi NNW 11.5 mph - N/A   Clear
6:55 AM 54.1 °F 30.4 °F 40% 30.25 in 10.0 mi NNW 6.9 mph - N/A   Clear
7:15 AM 54.5 °F 32.7 °F 44% 30.25 in 10.0 mi NNW 6.9 mph - N/A   Clear
7:35 AM 55.0 °F 34.2 °F 45% 30.25 in 10.0 mi North 9.2 mph - N/A   Clear
7:55 AM 58.5 °F 30.6 °F 35% 30.25 in 10.0 mi North 9.2 mph - N/A   Clear
8:15 AM 60.6 °F 30.4 °F 32% 30.26 in 10.0 mi North 4.6 mph - N/A   Clear
8:35 AM 64.6 °F 30.4 °F 28% 30.26 in 10.0 mi Calm Calm - N/A   Clear
8:55 AM 67.1 °F 30.2 °F 25% 30.26 in 10.0 mi Calm Calm - N/A   Clear
9:15 AM 70.7 °F 28.2 °F 21% 30.25 in 10.0 mi Calm Calm - N/A   Clear
9:35 AM 73.0 °F 28.0 °F 19% 30.25 in 10.0 mi Calm Calm - N/A   Clear
9:55 AM 74.7 °F 27.0 °F 17% 30.25 in 10.0 mi Calm Calm - N/A   Clear
10:15 AM 77.0 °F 25.3 °F 15% 30.25 in 10.0 mi Calm Calm - N/A   Clear
10:35 AM 79.0 °F 24.8 °F 14% 30.24 in 10.0 mi WSW 9.2 mph - N/A   Clear
10:55 AM 80.6 °F 21.6 °F 11% 30.24 in 10.0 mi West 11.5 mph - N/A   Clear
11:15 AM 81.3 °F 20.8 °F 11% 30.24 in 10.0 mi WNW 16.1 mph 23.0 mph N/A   Clear
11:35 AM 82.8 °F 16.9 °F 9% 30.24 in 10.0 mi West 15.0 mph 24.2 mph N/A   Clear
11:55 AM 83.5 °F 14.9 °F 8% 30.24 in 10.0 mi WNW 16.1 mph 27.6 mph N/A   Clear
12:15 PM - - N/A% 30.23 in 10.0 mi WNW 21.9 mph 27.6 mph N/A   Clear
12:35 PM - - N/A% 30.22 in 10.0 mi WNW 20.7 mph 28.8 mph N/A   Clear
12:55 PM 84.9 °F 16.5 °F 8% 30.22 in 10.0 mi WNW 16.1 mph 29.9 mph N/A   Clear
1:15 PM 85.6 °F 15.6 °F 7% 30.22 in 10.0 mi NW 23.0 mph 33.4 mph N/A   Clear
1:35 PM 85.8 °F 15.8 °F 7% 30.22 in 10.0 mi NW 23.0 mph 32.2 mph N/A   Clear
1:55 PM 85.8 °F 17.1 °F 8% 30.21 in 10.0 mi WNW 21.9 mph 34.5 mph N/A   Clear
2:15 PM 86.2 °F 18.5 °F 8% 30.21 in 10.0 mi NW 20.7 mph 34.5 mph N/A   Clear
2:35 PM 86.5 °F 19.2 °F 8% 30.21 in 10.0 mi WNW 26.5 mph 35.7 mph N/A   Clear
2:55 PM - - N/A% 30.21 in 10.0 mi WNW 21.9 mph 34.5 mph N/A   Clear
3:15 PM - - N/A% 30.20 in 10.0 mi WNW 20.7 mph 29.9 mph N/A   Clear
3:35 PM 86.4 °F 20.8 °F 9% 30.20 in 10.0 mi WNW 20.7 mph 42.6 mph N/A   Clear
3:55 PM 86.2 °F 20.1 °F 9% 30.20 in 10.0 mi NW 20.7 mph 32.2 mph N/A   Clear
4:15 PM 86.4 °F 21.2 °F 9% 30.19 in 10.0 mi NW 18.4 mph 25.3 mph N/A   Clear
4:35 PM 86.2 °F 21.4 °F 9% 30.18 in 10.0 mi NW 27.6 mph 34.5 mph N/A   Clear
4:55 PM 85.8 °F 19.9 °F 9% 30.18 in 10.0 mi NW 17.3 mph 33.4 mph N/A   Clear
5:15 PM 85.8 °F 19.6 °F 9% 30.17 in 10.0 mi NW 18.4 mph 26.5 mph N/A   Clear
5:35 PM - - N/A% 30.17 in 10.0 mi WNW 19.6 mph 31.1 mph N/A   Clear
5:55 PM - - N/A% 30.16 in 10.0 mi NW 20.7 mph 28.8 mph N/A   Clear
6:15 PM - - N/A% 30.16 in 10.0 mi NW 16.1 mph 21.9 mph N/A   Clear
6:35 PM - - N/A% 30.16 in 10.0 mi NW 16.1 mph 26.5 mph N/A   Clear
6:55 PM - - N/A% 30.16 in 10.0 mi NW 16.1 mph 21.9 mph N/A   Clear
7:15 PM 82.9 °F 21.0 °F 10% 30.16 in 10.0 mi NW 20.7 mph 26.5 mph N/A   Clear
7:35 PM 82.2 °F 20.8 °F 10% 30.16 in 10.0 mi NW 11.5 mph 20.7 mph N/A   Clear
7:55 PM 81.0 °F 21.6 °F 11% 30.16 in 10.0 mi NW 9.2 mph - N/A   Clear
8:15 PM 79.3 °F 22.3 °F 12% 30.16 in 10.0 mi NW 9.2 mph - N/A   Clear
8:35 PM 76.6 °F 22.1 °F 13% 30.15 in 10.0 mi NW 8.1 mph - N/A   Clear
8:55 PM 73.6 °F 21.9 °F 14% 30.16 in 10.0 mi NNW 8.1 mph - N/A   Clear
9:15 PM 71.6 °F 23.0 °F 16% 30.16 in 10.0 mi NW 10.4 mph - N/A   Clear
9:35 PM 70.7 °F 23.5 °F 17% 30.17 in 10.0 mi NNW 9.2 mph - N/A   Clear
9:55 PM 69.4 °F 24.3 °F 18% 30.17 in 10.0 mi North 6.9 mph - N/A   Clear
10:15 PM 68.0 °F 24.6 °F 19% 30.17 in 10.0 mi North 9.2 mph - N/A   Clear
10:35 PM 67.8 °F 24.8 °F 20% 30.18 in 10.0 mi North 8.1 mph - N/A   Clear
10:55 PM 66.2 °F 24.8 °F 21% 30.18 in 10.0 mi NNW 8.1 mph - N/A   Clear
11:15 PM 64.9 °F 25.9 °F 23% 30.17 in 10.0 mi NNW 8.1 mph - N/A   Clear
11:35 PM 64.9 °F 25.2 °F 22% 30.18 in 10.0 mi Calm Calm - N/A   Clear
11:55 PM 64.0 °F 25.9 °F 24% 30.18 in 10.0 mi NNW 8.1 mph - N/A   Clear